When you browse on this site, cookies collect data to enhance your experience and personalize the content and advertising you see.
Visit our Privacy Policy to learn more. By continuing to use the site, you agree to this use of cookies and data.
  • In Belgium
  • List of Countries
  • For 7 days
  • Water Temperature
  • Weather Map
  • Weather Widgets
  • user-avatar
    Login

    Hourly Weather Rhodes

    Today, 22 January, Wednesday

    Time Temperature Precipitation Wind Pressure Humidity
    00:00 +3°C° 0 mm 6 mps 740 mmHg 64%
    01:00 +3°C° 0 mm 6 mps 739 mmHg 66%
    02:00 +3°C° 0 mm 6 mps 739 mmHg 66%
    03:00 +3°C° 0 mm 5 mps 739 mmHg 67%
    04:00 +2°C° 0 mm 5 mps 739 mmHg 68%
    05:00 +2°C° 0 mm 5 mps 738 mmHg 69%
    06:00 +2°C° 0 mm 5 mps 739 mmHg 69%
    07:00 +3°C° 0 mm 4 mps 739 mmHg 70%
    08:00 +4°C° 0 mm 4 mps 739 mmHg 70%
    09:00 +6°C° 0 mm 4 mps 739 mmHg 63%
    10:00 +8°C° 0 mm 4 mps 739 mmHg 55%
    11:00 +11°C° 0 mm 3 mps 739 mmHg 47%
    12:00 +11°C° 0 mm 3 mps 739 mmHg 45%
    13:00 +11°C° 0 mm 3 mps 738 mmHg 44%
    14:00 +12°C° 0 mm 3 mps 738 mmHg 42%
    15:00 +11°C° 0 mm 3 mps 738 mmHg 46%
    16:00 +10°C° 0 mm 3 mps 738 mmHg 50%
    17:00 +9°C° 0 mm 3 mps 738 mmHg 55%
    18:00 +8°C° 0 mm 3 mps 738 mmHg 60%
    19:00 +6°C° 0 mm 4 mps 738 mmHg 65%
    20:00 +5°C° 0 mm 4 mps 737 mmHg 70%
    21:00 +5°C° 0 mm 3 mps 737 mmHg 71%
    22:00 +5°C° 0 mm 3 mps 737 mmHg 73%
    23:00 +5°C° 0 mm 3 mps 737 mmHg 75%

    Tomorrow, 23 January, Thursday

    Time Temperature Precipitation Wind Pressure Humidity
    00:00 +5°C° 0 mm 4 mps 737 mmHg 73%
    01:00 +5°C° 0 mm 4 mps 737 mmHg 71%
    02:00 +5°C° 0 mm 5 mps 736 mmHg 70%
    03:00 +6°C° 0 mm 5 mps 736 mmHg 70%
    04:00 +5°C° 0 mm 6 mps 736 mmHg 70%
    05:00 +5°C° 0 mm 6 mps 735 mmHg 70%
    06:00 +5°C° 0 mm 6 mps 736 mmHg 70%
    07:00 +6°C° 0 mm 7 mps 736 mmHg 71%
    08:00 +6°C° 0 mm 7 mps 736 mmHg 71%
    09:00 +7°C° 0 mm 8 mps 736 mmHg 67%
    10:00 +10°C° 0 mm 8 mps 736 mmHg 62%
    11:00 +11°C° 0 mm 9 mps 736 mmHg 57%
    12:00 +11°C° 0 mm 9 mps 735 mmHg 54%
    13:00 +11°C° 0 mm 9 mps 735 mmHg 51%
    14:00 +12°C° 0 mm 9 mps 735 mmHg 48%
    15:00 +11°C° 0 mm 9 mps 735 mmHg 50%
    16:00 +10°C° 0 mm 8 mps 735 mmHg 51%
    17:00 +9°C° 0 mm 8 mps 735 mmHg 52%
    18:00 +8°C° 0 mm 9 mps 736 mmHg 47%
    19:00 +8°C° 0 mm 9 mps 736 mmHg 43%
    20:00 +8°C° 0 mm 10 mps 737 mmHg 38%
    21:00 +7°C° 0 mm 10 mps 737 mmHg 40%
    22:00 +7°C° 0 mm 10 mps 737 mmHg 41%
    23:00 +6°C° 0 mm 10 mps 738 mmHg 43%

    Day after tomorrow, 24 January, Friday

    Time Temperature Precipitation Wind Pressure Humidity
    00:00 +5°C° 0 mm 10 mps 738 mmHg 43%
    01:00 +5°C° 0 mm 10 mps 739 mmHg 43%
    02:00 +3°C° 0 mm 10 mps 739 mmHg 42%
    03:00 +3°C° 0 mm 9 mps 739 mmHg 43%
    04:00 +2°C° 0 mm 9 mps 739 mmHg 44%
    05:00 +2°C° 0 mm 8 mps 739 mmHg 44%
    06:00 +2°C° 0 mm 8 mps 740 mmHg 47%
    07:00 +3°C° 0 mm 7 mps 740 mmHg 50%
    08:00 +2°C° 0 mm 7 mps 741 mmHg 53%
    09:00 +4°C° 0 mm 6 mps 741 mmHg 48%
    10:00 +6°C° 0 mm 5 mps 741 mmHg 43%
    11:00 +8°C° 0 mm 4 mps 741 mmHg 38%
    12:00 +9°C° 0 mm 3 mps 741 mmHg 38%
    13:00 +10°C° 0 mm 3 mps 741 mmHg 37%
    14:00 +11°C° 0 mm 3 mps 741 mmHg 37%
    15:00 +10°C° 0 mm 3 mps 741 mmHg 43%
    16:00 +9°C° 0 mm 2 mps 741 mmHg 49%
    17:00 +7°C° 0 mm 2 mps 741 mmHg 55%
    18:00 +6°C° 0 mm 2 mps 741 mmHg 55%
    19:00 +5°C° 0 mm 2 mps 741 mmHg 55%
    20:00 +4°C° 0 mm 2 mps 741 mmHg 56%
    21:00 +4°C° 0 mm 2 mps 741 mmHg 55%
    22:00 +4°C° 0 mm 2 mps 741 mmHg 54%
    23:00 +4°C° 0 mm 2 mps 741 mmHg 53%

    25 January, Saturday

    Time Temperature Precipitation Wind Pressure Humidity
    00:00 +4°C° 0 mm 2 mps 741 mmHg 55%
    01:00 +4°C° 0 mm 2 mps 741 mmHg 56%
    02:00 +4°C° 0 mm 2 mps 741 mmHg 58%
    03:00 +3°C° 0 mm 3 mps 740 mmHg 61%
    04:00 +3°C° 0 mm 3 mps 740 mmHg 64%
    05:00 +4°C° 0 mm 3 mps 740 mmHg 66%
    06:00 +4°C° 0 mm 3 mps 740 mmHg 67%
    07:00 +4°C° 0 mm 3 mps 741 mmHg 68%
    08:00 +4°C° 0 mm 4 mps 741 mmHg 68%
    09:00 +7°C° 0 mm 4 mps 741 mmHg 62%
    10:00 +10°C° 0 mm 4 mps 741 mmHg 56%
    11:00 +12°C° 0 mm 4 mps 742 mmHg 49%
    12:00 +12°C° 0 mm 4 mps 741 mmHg 50%
    13:00 +13°C° 0 mm 4 mps 741 mmHg 50%
    14:00 +13°C° 0 mm 4 mps 741 mmHg 50%
    15:00 +12°C° 0 mm 4 mps 741 mmHg 56%
    16:00 +11°C° 0 mm 4 mps 741 mmHg 61%
    17:00 +10°C° 0 mm 4 mps 740 mmHg 67%
    18:00 +9°C° 0 mm 3 mps 741 mmHg 72%
    19:00 +8°C° 0 mm 3 mps 741 mmHg 77%
    20:00 +7°C° 0 mm 3 mps 741 mmHg 83%
    21:00 +7°C° 0 mm 3 mps 741 mmHg 83%
    22:00 +7°C° 0 mm 2 mps 741 mmHg 84%
    23:00 +7°C° 0 mm 2 mps 741 mmHg 84%

    26 January, Sunday

    Time Temperature Precipitation Wind Pressure Humidity
    00:00 +6°C° 0 mm 2 mps 741 mmHg 84%
    01:00 +6°C° 0 mm 2 mps 741 mmHg 83%
    02:00 +7°C° 0 mm 1 mps 741 mmHg 83%
    03:00 +7°C° 0 mm 1 mps 741 mmHg 84%
    04:00 +7°C° 0 mm 1 mps 741 mmHg 84%
    05:00 +7°C° 0 mm 1 mps 740 mmHg 85%
    06:00 +7°C° 0 mm 1 mps 741 mmHg 83%
    07:00 +8°C° 0 mm 1 mps 741 mmHg 81%
    08:00 +7°C° 0 mm 2 mps 741 mmHg 79%
    09:00 +9°C° 0 mm 2 mps 741 mmHg 75%
    10:00 +12°C° 0 mm 2 mps 742 mmHg 71%
    11:00 +14°C° 0 mm 2 mps 742 mmHg 67%
    12:00 +14°C° 0 mm 3 mps 741 mmHg 67%
    13:00 +14°C° 0 mm 3 mps 741 mmHg 67%
    14:00 +16°C° 0 mm 3 mps 741 mmHg 67%
    15:00 +14°C° 0 mm 3 mps 740 mmHg 73%
    16:00 +13°C° 0 mm 3 mps 740 mmHg 78%
    17:00 +12°C° 0 mm 3 mps 740 mmHg 84%
    18:00 +12°C° 0 mm 3 mps 740 mmHg 86%
    19:00 +12°C° 0 mm 2 mps 740 mmHg 89%
    20:00 +10°C° 0 mm 2 mps 740 mmHg 91%
    21:00 +10°C° 0 mm 2 mps 740 mmHg 91%
    22:00 +9°C° 0 mm 2 mps 740 mmHg 90%
    23:00 +9°C° 0 mm 2 mps 740 mmHg 90%

    27 January, Monday

    Time Temperature Precipitation Wind Pressure Humidity
    00:00 +9°C° 0 mm 3 mps 740 mmHg 88%
    01:00 +9°C° 0 mm 3 mps 740 mmHg 87%
    02:00 +9°C° 0 mm 3 mps 739 mmHg 86%
    03:00 +9°C° 0 mm 3 mps 739 mmHg 85%
    04:00 +9°C° 0 mm 3 mps 739 mmHg 85%
    05:00 +9°C° 0 mm 3 mps 739 mmHg 84%
    06:00 +10°C° 0 mm 3 mps 739 mmHg 87%
    07:00 +10°C° 0 mm 3 mps 739 mmHg 89%
    08:00 +10°C° 0 mm 2 mps 739 mmHg 91%
    09:00 +12°C° 0 mm 3 mps 739 mmHg 83%
    10:00 +13°C° 0 mm 3 mps 739 mmHg 76%
    11:00 +15°C° 0 mm 4 mps 740 mmHg 69%
    12:00 +16°C° 0 mm 3 mps 739 mmHg 69%
    13:00 +16°C° 0 mm 3 mps 739 mmHg 70%
    14:00 +16°C° 0 mm 2 mps 739 mmHg 70%
    15:00 +14°C° 0 mm 3 mps 738 mmHg 74%
    16:00 +13°C° 0 mm 3 mps 738 mmHg 78%
    17:00 +13°C° 0 mm 3 mps 738 mmHg 81%
    18:00 +12°C° 0 mm 3 mps 738 mmHg 83%
    19:00 +11°C° 0 mm 3 mps 738 mmHg 85%
    20:00 +10°C° 0 mm 3 mps 738 mmHg 87%
    21:00 +10°C° 0 mm 3 mps 738 mmHg 88%
    22:00 +10°C° 0 mm 3 mps 738 mmHg 89%
    23:00 +10°C° 0 mm 2 mps 738 mmHg 90%
    Show more